Weather History for Stampede Pass, WA

Change the Weather History Date:

Sunday, October 9, 2011

  Actual Average Record
Temperature  
Mean Temperature 46 °F -  
Max Temperature 51 °F 48 °F 64 °F (1996)
Min Temperature 42 °F 36 °F 30 °F (2008)
Degree Days  
Heating Degree Days 19    
Moisture  
Dew Point 44 °F    
Average Humidity 99    
Maximum Humidity 100    
Minimum Humidity 83    
Precipitation  
Precipitation 0.07 in - - ()
Sea Level Pressure  
Sea Level Pressure 29.98 in    
Wind  
Wind Speed 2 mph (SW)    
Max Wind Speed 6 mph    
Max Gust Speed -    
Visibility 3 miles    
Events Fog , Rain    
Averages and records for this station are not official NWS values.
T = Trace of Precipitation, MM = Missing Value Source: NWS Daily Summary

Daily Weather History Graph

Daily Weather History Graph

Search for Another Location

Airport:

Trip Planner

Search our weather history database for the weather conditions in past years. The results will help you decide how hot, cold, wet, or windy it might be!

Date:

Astronomy

Oct. 09, 2011 Rise Set
Actual Time 7:15 AM PDT 6:29 PM PDT
Civil Twilight 6:44 AM PDT 6:59 PM PDT
Nautical Twilight 6:08 AM PDT 7:35 PM PDT
Astronomical Twilight 5:33 AM PDT 8:10 PM PDT
Moon 5:12 PM PDT (10/9) 4:58 AM PDT (10/9)
Length of Visible Light 12h 15m
Length of Day
11h 14m
Waxing Gibbous, 95% of the Moon is Illuminated
Oct 9
Waxing Gibbous
Oct 11
Full
Oct 19
Last Quarter
Oct 26
New
Nov 2
First Quarter

Hourly Weather History & Observations

Time (PDT) Temp. Windchill Dew Point Humidity Pressure Visibility Wind Dir Wind Speed Gust Speed Precip Events Conditions
12:05 AM 42.8 °F 41.1 °F 42.8 °F 100% 30.11 in 1.5 mi SSW 3.5 mph - N/A   Overcast
12:08 AM 42.8 °F - 42.8 °F 100% 30.11 in 2.5 mi Calm Calm - N/A   Overcast
12:15 AM 42.8 °F - 42.8 °F 100% 30.11 in 8.0 mi Calm Calm - N/A   Overcast
12:56 AM 44.1 °F - 43.0 °F 96% 30.12 in 10.0 mi Calm Calm - N/A   Overcast
1:56 AM 43.0 °F - 43.0 °F 100% 30.11 in 10.0 mi Calm Calm - N/A   Overcast
2:56 AM 43.0 °F - 43.0 °F 100% 30.09 in 4.0 mi Calm Calm - N/A   Overcast
3:01 AM 42.8 °F - 42.8 °F 100% 30.09 in 0.8 mi Calm Calm - N/A   Overcast
3:06 AM 42.8 °F - 42.8 °F 100% 30.09 in 0.2 mi Calm Calm - N/A Fog Fog
3:38 AM 42.8 °F - 42.8 °F 100% 30.08 in 0.2 mi Calm Calm - 0.01 in Fog , Rain Light Rain
3:47 AM 42.8 °F - 42.8 °F 100% 30.08 in 0.2 mi Calm Calm - 0.01 in Fog Fog
3:56 AM 43.0 °F - 43.0 °F 100% 30.08 in 0.2 mi Calm Calm - 0.01 in Fog Fog
4:21 AM 42.8 °F 41.1 °F 42.8 °F 100% 30.08 in 0.2 mi Variable 3.5 mph - N/A Fog Fog
4:35 AM 42.8 °F 40.1 °F 42.8 °F 100% 30.08 in 1.0 mi Variable 4.6 mph - N/A   Overcast
4:47 AM 42.8 °F 40.1 °F 42.8 °F 100% 30.08 in 0.8 mi Variable 4.6 mph - N/A   Overcast
4:56 AM 43.0 °F - 43.0 °F 100% 30.08 in 0.2 mi Calm Calm - N/A Fog Fog
5:12 AM 42.8 °F 41.1 °F 42.8 °F 100% 30.07 in 0.2 mi West 3.5 mph - 0.00 in Fog , Rain Light Rain
5:34 AM 42.8 °F - 42.8 °F 100% 30.08 in 0.2 mi Calm Calm - 0.00 in Fog Fog
5:56 AM 43.0 °F 41.3 °F 43.0 °F 100% 30.09 in 0.2 mi Variable 3.5 mph - 0.00 in Fog Fog
6:24 AM 42.8 °F - 42.8 °F 100% 30.07 in 0.2 mi Calm Calm - 0.01 in Fog Fog
6:39 AM 42.8 °F - 42.8 °F 100% 30.07 in 0.2 mi Calm Calm - 0.02 in Fog Fog
6:56 AM 43.0 °F - 43.0 °F 100% 30.08 in 0.2 mi Calm Calm - 0.02 in Fog Fog
7:56 AM 43.0 °F - 43.0 °F 100% 30.08 in 0.2 mi Calm Calm - 0.01 in Fog Fog
8:56 AM 43.0 °F - 43.0 °F 100% 30.07 in 0.2 mi Calm Calm - 0.01 in Fog Fog
9:56 AM 43.0 °F - 43.0 °F 100% 30.06 in 0.2 mi Calm Calm - 0.02 in Fog Fog
10:56 AM 44.1 °F - 44.1 °F 100% 30.06 in 0.2 mi Calm Calm - N/A Fog Fog
11:13 AM 44.6 °F - 44.6 °F 100% 30.04 in 0.5 mi Calm Calm - N/A Fog Fog
11:18 AM 44.6 °F - 44.6 °F 100% 30.04 in 1.5 mi Calm Calm - N/A   Overcast
11:22 AM 44.6 °F - 42.8 °F 93% 30.04 in 3.0 mi Calm Calm - N/A   Overcast
11:30 AM 44.6 °F - 44.6 °F 100% 30.04 in 10.0 mi Calm Calm - N/A   Overcast
11:56 AM 46.0 °F - 45.0 °F 96% 30.05 in 10.0 mi Calm Calm - N/A   Overcast
12:12 PM 46.4 °F - 44.6 °F 93% 30.04 in 10.0 mi Calm Calm - N/A   Overcast
12:20 PM 44.6 °F 42.2 °F 44.6 °F 100% 30.03 in 10.0 mi WSW 4.6 mph - N/A   Overcast
12:28 PM 44.6 °F 43.1 °F 44.6 °F 100% 30.02 in 10.0 mi Variable 3.5 mph - N/A   Mostly Cloudy
12:48 PM 46.4 °F - 44.6 °F 93% 30.01 in 10.0 mi Calm Calm - N/A   Partly Cloudy
12:56 PM 46.0 °F - 45.0 °F 96% 30.01 in 10.0 mi Calm Calm - N/A   Scattered Clouds
1:56 PM 48.0 °F - 46.0 °F 93% 29.98 in 10.0 mi Calm Calm - N/A   Scattered Clouds
2:56 PM 50.0 °F - 45.0 °F 83% 29.96 in 10.0 mi Calm Calm - N/A   Partly Cloudy
3:56 PM 50.0 °F - 46.0 °F 86% 29.95 in 10.0 mi Variable 4.6 mph - N/A   Scattered Clouds
4:27 PM 46.4 °F 43.5 °F 46.4 °F 100% 29.96 in 3.0 mi Variable 5.8 mph - N/A   Mostly Cloudy
4:30 PM 46.4 °F 44.3 °F 46.4 °F 100% 29.96 in 1.5 mi Variable 4.6 mph - N/A   Mostly Cloudy
4:33 PM 46.4 °F 44.3 °F 46.4 °F 100% 29.95 in 1.0 mi Variable 4.6 mph - N/A   Mostly Cloudy
4:37 PM 46.4 °F 44.3 °F 46.4 °F 100% 29.95 in 0.5 mi WSW 4.6 mph - N/A Fog Fog
4:56 PM 46.0 °F 43.9 °F 45.0 °F 96% 29.95 in 0.8 mi Variable 4.6 mph - N/A   Overcast
5:13 PM 44.6 °F 43.1 °F 44.6 °F 100% 29.94 in 0.2 mi Variable 3.5 mph - N/A Fog Fog
5:26 PM 44.6 °F - 44.6 °F 100% 29.93 in 1.0 mi Calm Calm - N/A   Overcast
5:29 PM 44.6 °F - 44.6 °F 100% 29.92 in 2.0 mi Calm Calm - N/A   Overcast
5:38 PM 44.6 °F - 44.6 °F 100% 29.93 in 10.0 mi Calm Calm - N/A   Mostly Cloudy
5:48 PM 44.6 °F 43.1 °F 44.6 °F 100% 29.92 in 10.0 mi SW 3.5 mph - N/A   Scattered Clouds
5:56 PM 45.0 °F 42.6 °F 44.1 °F 97% 29.93 in 10.0 mi SW 4.6 mph - N/A   Scattered Clouds
6:03 PM 44.6 °F 42.2 °F 44.6 °F 100% 29.92 in 0.8 mi Variable 4.6 mph - N/A   Mist
6:07 PM 44.6 °F 43.1 °F 44.6 °F 100% 29.92 in 0.2 mi Variable 3.5 mph - N/A Fog Fog
6:14 PM 44.6 °F 43.1 °F 44.6 °F 100% 29.92 in 0.2 mi WSW 3.5 mph - N/A Fog Fog
6:34 PM 44.6 °F 42.2 °F 44.6 °F 100% 29.91 in 0.2 mi Variable 4.6 mph - N/A Fog Fog
6:41 PM 44.6 °F 42.2 °F 44.6 °F 100% 29.91 in 0.2 mi SW 4.6 mph - N/A Fog Fog
6:56 PM 44.1 °F 42.5 °F 44.1 °F 100% 29.92 in 0.2 mi Variable 3.5 mph - N/A Fog Fog
7:20 PM 44.6 °F 43.1 °F 44.6 °F 100% 29.91 in 0.2 mi WSW 3.5 mph - N/A Fog Fog
7:56 PM 44.1 °F 42.5 °F 44.1 °F 100% 29.91 in 0.2 mi SW 3.5 mph - N/A Fog Fog
8:06 PM 42.8 °F 41.1 °F 42.8 °F 100% 29.90 in 0.2 mi WSW 3.5 mph - N/A Fog Fog
8:28 PM 44.6 °F 43.1 °F 44.6 °F 100% 29.90 in 0.2 mi Variable 3.5 mph - N/A Fog Fog
8:37 PM 44.6 °F 43.1 °F 44.6 °F 100% 29.89 in 0.2 mi WSW 3.5 mph - N/A Fog Fog
8:52 PM 44.6 °F 43.1 °F 44.6 °F 100% 29.89 in 0.2 mi WSW 3.5 mph - N/A Fog Fog
8:56 PM 44.1 °F 41.5 °F 44.1 °F 100% 29.90 in 0.2 mi SW 4.6 mph - N/A Fog Fog
9:10 PM 42.8 °F 41.1 °F 42.8 °F 100% 29.89 in 0.2 mi SW 3.5 mph - N/A Fog Fog
9:18 PM 42.8 °F - 42.8 °F 100% 29.89 in 0.2 mi Calm Calm - N/A Fog Fog
9:44 PM 42.8 °F - 42.8 °F 100% 29.87 in 0.5 mi Calm Calm - N/A Fog Fog
9:52 PM 42.8 °F - 42.8 °F 100% 29.87 in 1.5 mi Calm Calm - N/A   Mostly Cloudy
9:56 PM 43.0 °F - 42.1 °F 97% 29.88 in 4.0 mi Calm Calm - N/A   Mostly Cloudy
10:22 PM 42.8 °F - 42.8 °F 100% 29.86 in 1.2 mi Calm Calm - N/A   Mostly Cloudy
10:27 PM 42.8 °F - 42.8 °F 100% 29.86 in 0.2 mi Calm Calm - N/A Fog Fog
10:37 PM 42.8 °F - 42.8 °F 100% 29.85 in 1.2 mi Calm Calm - N/A   Overcast
10:39 PM 42.8 °F - 42.8 °F 100% 29.85 in 5.0 mi Calm Calm - N/A   Mostly Cloudy
10:56 PM 43.0 °F - 42.1 °F 97% 29.85 in 10.0 mi Calm Calm - N/A   Mostly Cloudy
11:47 PM 42.8 °F - 42.8 °F 100% 29.83 in 2.0 mi Calm Calm - N/A   Overcast
11:56 PM 42.1 °F - 42.1 °F 100% 29.84 in 6.0 mi Calm Calm - N/A   Overcast